This demonstration page uses our WeatherBlox Daily Observations layout. Learn more.

Left ArrowRight Arrow

38.80484, -77.04692

Hourly Observations for August 30, 2022

Temp ( °F °C ) Dew Point ( °F °C ) Humidity (%) Winds ( mph kmh ) Pressure ( in mb ) Visibility ( mi km ) Precip ( " mm )
12:52 am 00:52 Partly Cloudy 78 25.6 74 23.3 87 87 SSW 8 13 30.01 1016 10 16 0.00 0.00
1:52 am 01:52 Partly Cloudy 78 25.6 73 22.8 85 85 SSW 10 17 30.00 1016 10 16 0.00 0.00
2:52 am 02:52 Mostly Clear 77 25 73 22.8 88 88 S 9 15 29.98 1015 10 16 0.00 0.00
3:52 am 03:52 Partly Cloudy 77 25 73 22.8 88 88 S 9 15 29.98 1015 10 16 0.00 0.00
4:52 am 04:52 Partly Cloudy 76 24.4 73 22.8 91 91 SSW 7 11 29.98 1015 10 16 0.00 0.00
5:52 am 05:52 Mostly Clear 76 24.4 73 22.8 91 91 SSW 6 9 29.97 1015 10 16 0.00 0.00
6:52 am 06:52 Partly Cloudy 76 24.4 73 22.8 91 91 SSW 9 15 29.96 1015 10 16 0.00 0.00
7:52 am 07:52 Partly Cloudy 77 25 73 22.8 88 88 SSW 9 15 29.95 1014 10 16 0.00 0.00
8:52 am 08:52 Mostly Sunny 80 26.7 74 23.3 82 82 S 10 17 29.94 1014 10 16 0.00 0.00
9:52 am 09:52 Mostly Sunny 83 28.3 74 23.3 74 74 SSE 9 15 29.93 1014 10 16 0.00 0.00
10:52 am 10:52 Mostly Sunny 87 30.6 74 23.3 65 65 S 14 22 29.92 1013 10 16 0.00 0.00
11:52 am 11:52 Mostly Sunny 91 32.8 71 21.7 52 52 S 14 22 29.90 1012 10 16 0.00 0.00
12:52 pm 12:52 Partly Cloudy 92 33.3 71 21.7 51 51 S 16 26 29.86 1011 10 16 0.00 0.00
1:52 pm 13:52 Partly Cloudy 94 34.4 70 21.1 46 46 S 15 24 29.83 1010 10 16 0.00 0.00
2:52 pm 14:52 Partly Cloudy 94 34.4 67 19.4 41 41 S 16 26 29.82 1010 10 16 0.00 0.00
4:10 pm 16:10 Mostly Cloudy 84 28.9 66 18.9 55 55 W 21 33 29.82 1010 10 16 0.00 0.00
4:33 pm 16:33 Cloudy with Nearby Thunderstorms 78 25.6 68 20 71 71 WNW 22 35 29.83 1010 10 16 0.01 0.13
4:52 pm 16:52 Cloudy with Thunderstorms 77 25 68 20 74 74 W 13 20 29.83 1010 10 16 0.01 0.13
5:52 pm 17:52 Cloudy with Rain 74 23.3 71 21.7 91 91 SSW 12 19 29.83 1010 4 6 0.14 3.56
6:52 pm 18:52 Mostly Cloudy 75 23.9 72 22.2 90 90 W 9 15 29.81 1010 10 16 0.01 0.13
7:52 pm 19:52 Mostly Cloudy 76 24.4 71 21.7 85 85 Calm 29.82 1010 10 16 0.00 0.00
8:52 pm 20:52 Mostly Cloudy 76 24.4 71 21.7 85 85 WNW 6 9 29.83 1010 10 16 0.00 0.00
9:52 pm 21:52 Mostly Cloudy 75 23.9 71 21.7 88 88 SSW 3 6 29.85 1011 10 16 0.00 0.00
10:52 pm 22:52 Cloudy 76 24.4 71 21.7 85 85 W 5 7 29.85 1011 10 16 0.00 0.00
11:52 pm 23:52 Mostly Cloudy 75 23.9 71 21.7 88 88 W 6 9 29.86 1011 10 16 0.00 0.00

Powered by AerisWeather